| time (UTC) | temp C | wind direction | speed KPH | gust KPH | rain 1hr cm | rain 24hr cm | rain mn cm | humidity % | barometer mb |
| 20260503025305 | 14 | 180 | 16.1 | 24.1 | 0.00 | 0.00 | 0.00 | 38 | 1014.9 |
| 20260503024727 | 14 | 183 | 16.1 | 22.5 | 0.00 | 0.00 | 0.00 | 38 | 1015.0 |
| 20260503024609 | 13 | 167 | 14.5 | 22.5 | 0.00 | 0.00 | 0.00 | 38 | 1015.0 |
| 20260503024501 | 13 | 157 | 14.5 | 22.5 | 0.00 | 0.00 | 0.00 | 37 | 1015.1 |
| 20260503024236 | 14 | 163 | 14.5 | 19.3 | 0.00 | 0.00 | 0.00 | 37 | 1015.1 |
| 20260503023746 | 14 | 163 | 14.5 | 17.7 | 0.00 | 0.00 | 0.00 | 37 | 1015.2 |
| 20260503023228 | 14 | 171 | 14.5 | 19.3 | 0.00 | 0.00 | 0.00 | 36 | 1015.2 |
| 20260503023043 | 14 | 164 | 12.9 | 19.3 | 0.00 | 0.00 | 0.00 | 36 | 1015.3 |
| 20260503022739 | 15 | 190 | 11.3 | 16.1 | 0.00 | 0.00 | 0.00 | 36 | 1015.3 |
| 20260503022225 | 15 | 182 | 11.3 | 14.5 | 0.00 | 0.00 | 0.00 | 36 | 1015.3 |
| 20260503021737 | 15 | 153 | 9.7 | 14.5 | 0.00 | 0.00 | 0.00 | 36 | 1015.4 |
| 20260503021550 | 15 | 171 | 9.7 | 14.5 | 0.00 | 0.00 | 0.00 | 36 | 1015.4 |
| 20260503021250 | 15 | 167 | 9.7 | 14.5 | 0.00 | 0.00 | 0.00 | 36 | 1015.4 |
| 20260503020728 | 15 | 177 | 11.3 | 14.5 | 0.00 | 0.00 | 0.00 | 35 | 1015.4 |
| 20260503020239 | 15 | 156 | 9.7 | 12.9 | 0.00 | 0.00 | 0.00 | 35 | 1015.5 |
| 20260503020059 | 15 | 171 | 9.7 | 14.5 | 0.00 | 0.00 | 0.00 | 34 | 1015.5 |
| 20260503015724 | 16 | 178 | 9.7 | 12.9 | 0.00 | 0.00 | 0.00 | 35 | 1015.5 |
| 20260503015257 | 16 | 168 | 9.7 | 14.5 | 0.00 | 0.00 | 0.00 | 34 | 1015.5 |
| 20260503014747 | 16 | 168 | 8.0 | 11.3 | 0.00 | 0.00 | 0.00 | 34 | 1015.5 |
| 20260503014537 | 16 | 168 | 8.0 | 11.3 | 0.00 | 0.00 | 0.00 | 34 | 1015.6 |
| 20260503014230 | 16 | 169 | 8.0 | 11.3 | 0.00 | 0.00 | 0.00 | 33 | 1015.5 |
| 20260503013740 | 16 | 169 | 8.0 | 11.3 | 0.00 | 0.00 | 0.00 | 32 | 1015.5 |
| 20260503013310 | 17 | 169 | 8.0 | 11.3 | 0.00 | 0.00 | 0.00 | 32 | 1015.5 |
| 20260503013030 | 17 | 169 | 8.0 | 11.3 | 0.00 | 0.00 | 0.00 | 32 | 1015.6 |
| 20260503012733 | 17 | 170 | 8.0 | 9.7 | 0.00 | 0.00 | 0.00 | 32 | 1015.5 |
| 20260503012244 | 17 | 171 | 8.0 | 9.7 | 0.00 | 0.00 | 0.00 | 31 | 1015.5 |
| 20260503011727 | 17 | 170 | 6.4 | 9.7 | 0.00 | 0.00 | 0.00 | 31 | 1015.5 |
| 20260503011524 | 17 | 169 | 6.4 | 11.3 | 0.00 | 0.00 | 0.00 | 31 | 1015.6 |
| 20260503011241 | 18 | 171 | 8.0 | 11.3 | 0.00 | 0.00 | 0.00 | 31 | 1015.5 |
| 20260503010723 | 18 | 175 | 6.4 | 11.3 | 0.00 | 0.00 | 0.00 | 30 | 1015.6 |
| 20260503010257 | 18 | 182 | 6.4 | 11.3 | 0.00 | 0.00 | 0.00 | 30 | 1015.6 |
| 20260503005739 | 18 | 181 | 6.4 | 11.3 | 0.00 | 0.00 | 0.00 | 30 | 1015.6 |
| 20260503005222 | 18 | 208 | 8.0 | 12.9 | 0.00 | 0.00 | 0.00 | 30 | 1015.6 |
| 20260503004734 | 18 | 198 | 9.7 | 14.5 | 0.00 | 0.00 | 0.00 | 30 | 1015.6 |
| 20260503004503 | 18 | 219 | 8.0 | 14.5 | 0.00 | 0.00 | 0.00 | 28 | 1015.6 |
| 20260503004249 | 18 | 208 | 8.0 | 14.5 | 0.00 | 0.00 | 0.00 | 29 | 1015.6 |
| 20260503003735 | 19 | 223 | 9.7 | 14.5 | 0.00 | 0.00 | 0.00 | 29 | 1015.6 |
| 20260503003249 | 19 | 215 | 11.3 | 20.9 | 0.00 | 0.00 | 0.00 | 29 | 1015.6 |
| 20260503003049 | 18 | 225 | 11.3 | 20.9 | 0.00 | 0.00 | 0.00 | 28 | 1015.7 |
| 20260503002738 | 19 | 196 | 12.9 | 20.9 | 0.00 | 0.00 | 0.00 | 28 | 1015.6 |
| 20260503002222 | 19 | 218 | 11.3 | 19.3 | 0.00 | 0.00 | 0.00 | 28 | 1015.8 |
| 20260503001727 | 19 | 211 | 12.9 | 19.3 | 0.00 | 0.00 | 0.00 | 28 | 1015.8 |
| 20260503001553 | 19 | 192 | 12.9 | 19.3 | 0.00 | 0.00 | 0.00 | 28 | 1016.0 |
| 20260503001241 | 19 | 192 | 11.3 | 19.3 | 0.00 | 0.00 | 0.00 | 28 | 1015.9 |
| 20260503000724 | 20 | 228 | 14.5 | 24.1 | 0.00 | 0.00 | 0.00 | 27 | 1015.9 |
| 20260503000237 | 20 | 202 | 14.5 | 24.1 | 0.00 | 0.00 | 0.00 | 27 | 1015.9 |
| 20260503000110 | 20 | 244 | 14.5 | 24.1 | 0.00 | 0.00 | 0.00 | 27 | 1016.2 |
| 20260502235808 | 20 | 206 | 16.1 | 24.1 | 0.00 | 0.00 | 0.00 | 27 | 1016.1 |
| 20260502235229 | 20 | 203 | 14.5 | 20.9 | 0.00 | 0.00 | 0.00 | 28 | 1016.2 |
| 20260502234740 | 20 | 230 | 16.1 | 20.9 | 0.00 | 0.00 | 0.00 | 28 | 1016.2 |
| 20260502234533 | 20 | 209 | 11.3 | 22.5 | 0.00 | 0.00 | 0.00 | 28 | 1016.4 |
| 20260502234225 | 20 | 189 | 12.9 | 22.5 | 0.00 | 0.00 | 0.00 | 29 | 1016.3 |
| 20260502233732 | 20 | 219 | 16.1 | 22.5 | 0.00 | 0.00 | 0.00 | 28 | 1016.4 |
| 20260502233243 | 20 | 207 | 16.1 | 24.1 | 0.00 | 0.00 | 0.00 | 27 | 1016.5 |
| 20260502233019 | 20 | 221 | 11.3 | 24.1 | 0.00 | 0.00 | 0.00 | 28 | 1016.6 |
| 20260502232726 | 20 | 190 | 11.3 | 25.7 | 0.00 | 0.00 | 0.00 | 28 | 1016.4 |
| 20260502232237 | 20 | 230 | 14.5 | 25.7 | 0.00 | 0.00 | 0.00 | 27 | 1016.5 |
| 20260502231748 | 20 | 211 | 16.1 | 24.1 | 0.00 | 0.00 | 0.00 | 26 | 1016.6 |
| 20260502231510 | 20 | 227 | 11.3 | 20.9 | 0.00 | 0.00 | 0.00 | 28 | 1016.7 |
| 20260502231241 | 20 | 217 | 9.7 | 20.9 | 0.00 | 0.00 | 0.00 | 30 | 1016.6 |
| 20260502230807 | 20 | 213 | 14.5 | 27.4 | 0.00 | 0.00 | 0.00 | 27 | 1016.6 |
| 20260502230231 | 20 | 205 | 16.1 | 27.4 | 0.00 | 0.00 | 0.00 | 28 | 1016.7 |
| 20260502230045 | 20 | 209 | 19.3 | 27.4 | 0.00 | 0.00 | 0.00 | 28 | 1016.9 |
| 20260502225803 | 20 | 176 | 11.3 | 24.1 | 0.00 | 0.00 | 0.00 | 28 | 1016.8 |
| 20260502225224 | 20 | 219 | 9.7 | 16.1 | 0.00 | 0.00 | 0.00 | 29 | 1016.8 |
| 20260502224758 | 20 | 178 | 11.3 | 22.5 | 0.00 | 0.00 | 0.00 | 28 | 1016.8 |
| 20260502224507 | 20 | 192 | 8.0 | 25.7 | 0.00 | 0.00 | 0.00 | 29 | 1017.0 |
| 20260502224223 | 20 | 224 | 14.5 | 25.7 | 0.00 | 0.00 | 0.00 | 28 | 1016.9 |
| 20260502223732 | 20 | 218 | 14.5 | 24.1 | 0.00 | 0.00 | 0.00 | 29 | 1017.0 |
| 20260502223238 | 20 | 242 | 11.3 | 29.0 | 0.00 | 0.00 | 0.00 | 29 | 1017.1 |
| 20260502223009 | 19 | 262 | 14.5 | 29.0 | 0.00 | 0.00 | 0.00 | 28 | 1017.3 |
| 20260502222722 | 20 | 242 | 17.7 | 29.0 | 0.00 | 0.00 | 0.00 | 28 | 1017.2 |
| 20260502222256 | 20 | 273 | 16.1 | 30.6 | 0.00 | 0.00 | 0.00 | 28 | 1017.2 |
| 20260502221744 | 20 | 269 | 20.9 | 30.6 | 0.00 | 0.00 | 0.00 | 28 | 1017.3 |
| 20260502221552 | 20 | 277 | 12.9 | 33.8 | 0.00 | 0.00 | 0.00 | 29 | 1017.6 |
| 20260502221226 | 20 | 234 | 17.7 | 33.8 | 0.00 | 0.00 | 0.00 | 29 | 1017.4 |
| 20260502220758 | 20 | 225 | 19.3 | 27.4 | 0.00 | 0.00 | 0.00 | 30 | 1017.4 |
| 20260502220243 | 20 | 255 | 12.9 | 29.0 | 0.00 | 0.00 | 0.00 | 30 | 1017.5 |
| 20260502220015 | 20 | 221 | 12.9 | 33.8 | 0.00 | 0.00 | 0.00 | 30 | 1017.8 |
| 20260502215732 | 20 | 217 | 14.5 | 33.8 | 0.00 | 0.00 | 0.00 | 28 | 1017.6 |
| 20260502215242 | 20 | 210 | 20.9 | 33.8 | 0.00 | 0.00 | 0.00 | 29 | 1017.6 |
| 20260502214734 | 20 | 213 | 12.9 | 22.5 | 0.00 | 0.00 | 0.00 | 29 | 1017.6 |
| 20260502214554 | 20 | 224 | 8.0 | 24.1 | 0.00 | 0.00 | 0.00 | 32 | 1017.8 |
| 20260502214247 | 20 | 311 | 17.7 | 24.1 | 0.00 | 0.00 | 0.00 | 29 | 1017.8 |
| 20260502213729 | 20 | 290 | 17.7 | 24.1 | 0.00 | 0.00 | 0.00 | 31 | 1017.8 |
| 20260502213241 | 20 | 288 | 14.5 | 27.4 | 0.00 | 0.00 | 0.00 | 32 | 1017.9 |
| 20260502213059 | 20 | 313 | 9.7 | 27.4 | 0.00 | 0.00 | 0.00 | 31 | 1018.1 |
| 20260502213005 | 20 | 274 | 9.7 | 27.4 | 0.00 | 0.00 | 0.00 | 31 | 1018.2 |
| 20260502212723 | 20 | 205 | 17.7 | 27.4 | 0.00 | 0.00 | 0.00 | 30 | 1017.9 |
| 20260502212230 | 20 | 304 | 12.9 | 25.7 | 0.00 | 0.00 | 0.00 | 29 | 1017.9 |
| 20260502211802 | 19 | 286 | 12.9 | 30.6 | 0.00 | 0.00 | 0.00 | 30 | 1018.1 |
| 20260502211535 | 19 | 264 | 17.7 | 30.6 | 0.00 | 0.00 | 0.00 | 33 | 1018.3 |
| 20260502211226 | 20 | 257 | 19.3 | 25.7 | 0.00 | 0.00 | 0.00 | 32 | 1018.2 |
| 20260502210736 | 20 | 232 | 6.4 | 27.4 | 0.00 | 0.00 | 0.00 | 30 | 1018.1 |
| 20260502210248 | 20 | 273 | 14.5 | 27.4 | 0.00 | 0.00 | 0.00 | 31 | 1018.2 |
| 20260502210019 | 20 | 271 | 11.3 | 22.5 | 0.00 | 0.00 | 0.00 | 33 | 1018.5 |
| 20260502205758 | 20 | 355 | 16.1 | 22.5 | 0.00 | 0.00 | 0.00 | 31 | 1018.3 |
| 20260502205245 | 20 | 293 | 11.3 | 20.9 | 0.00 | 0.00 | 0.00 | 32 | 1018.4 |
| 20260502204726 | 20 | 277 | 9.7 | 17.7 | 0.00 | 0.00 | 0.00 | 32 | 1018.5 |
| 20260502204558 | 20 | 259 | 9.7 | 17.7 | 0.00 | 0.00 | 0.00 | 33 | 1018.8 |
| 20260502204501 | 20 | 331 | 11.3 | 17.7 | 0.00 | 0.00 | 0.00 | 34 | 1018.8 |
| 20260502204300 | 20 | 265 | 6.4 | 19.3 | 0.00 | 0.00 | 0.00 | 29 | 1018.6 |
| 20260502203808 | 20 | 266 | 9.7 | 19.3 | 0.00 | 0.00 | 0.00 | 33 | 1018.8 |
| 20260502203230 | 19 | 240 | 6.4 | 17.7 | 0.00 | 0.00 | 0.00 | 34 | 1018.9 |
| 20260502203025 | 19 | 285 | 8.0 | 19.3 | 0.00 | 0.00 | 0.00 | 34 | 1019.2 |
| 20260502202742 | 20 | 325 | 11.3 | 27.4 | 0.00 | 0.00 | 0.00 | 37 | 1018.9 |
| 20260502202225 | 20 | 315 | 17.7 | 27.4 | 0.00 | 0.00 | 0.00 | 31 | 1019.0 |
| 20260502201734 | 20 | 288 | 6.4 | 16.1 | 0.00 | 0.00 | 0.00 | 33 | 1019.2 |
| 20260502201530 | 20 | 207 | 11.3 | 16.1 | 0.00 | 0.00 | 0.00 | 38 | 1019.3 |
| 20260502201307 | 19 | 183 | 6.4 | 19.3 | 0.00 | 0.00 | 0.00 | 34 | 1019.1 |
| 20260502200727 | 18 | 292 | 9.7 | 19.3 | 0.00 | 0.00 | 0.00 | 36 | 1019.3 |
| 20260502200259 | 18 | 157 | 4.8 | 20.9 | 0.00 | 0.00 | 0.00 | 33 | 1019.4 |
| 20260502200045 | 18 | 157 | 8.0 | 27.4 | 0.00 | 0.00 | 0.00 | 30 | 1019.6 |
| 20260502195810 | 19 | 315 | 9.7 | 27.4 | 0.00 | 0.00 | 0.00 | 34 | 1019.5 |
| 20260502195231 | 19 | 276 | 12.9 | 20.9 | 0.00 | 0.00 | 0.00 | 34 | 1019.5 |
| 20260502194740 | 19 | 247 | 9.7 | 16.1 | 0.00 | 0.00 | 0.00 | 39 | 1019.7 |
| 20260502194524 | 18 | 259 | 8.0 | 16.1 | 0.00 | 0.00 | 0.00 | 35 | 1019.9 |
| 20260502194225 | 18 | 254 | 4.8 | 19.3 | 0.00 | 0.00 | 0.00 | 37 | 1019.7 |
| 20260502193735 | 19 | 22 | 9.7 | 19.3 | 0.00 | 0.00 | 0.00 | 32 | 1019.8 |
| 20260502193228 | 18 | 172 | 9.7 | 24.1 | 0.00 | 0.00 | 0.00 | 29 | 1019.9 |
| 20260502193024 | 18 | 242 | 6.4 | 24.1 | 0.00 | 0.00 | 0.00 | 38 | 1020.2 |
| 20260502192801 | 18 | 252 | 14.5 | 24.1 | 0.00 | 0.00 | 0.00 | 36 | 1020.1 |
| 20260502192310 | 18 | 281 | 11.3 | 20.9 | 0.00 | 0.00 | 0.00 | 37 | 1020.0 |
| 20260502191731 | 18 | 269 | 4.8 | 17.7 | 0.00 | 0.00 | 0.00 | 38 | 1020.1 |
| 20260502191600 | 18 | 253 | 8.0 | 22.5 | 0.00 | 0.00 | 0.00 | 38 | 1020.4 |
| 20260502191240 | 18 | 223 | 9.7 | 22.5 | 0.00 | 0.00 | 0.00 | 36 | 1020.2 |
| 20260502190723 | 19 | 312 | 14.5 | 22.5 | 0.00 | 0.00 | 0.00 | 39 | 1020.2 |
| 20260502190234 | 17 | 17 | 4.8 | 20.9 | 0.00 | 0.00 | 0.00 | 36 | 1020.3 |
| 20260502190055 | 17 | 287 | 1.6 | 19.3 | 0.00 | 0.00 | 0.00 | 45 | 1020.7 |
| 20260502185749 | 18 | 5 | 12.9 | 22.5 | 0.00 | 0.00 | 0.00 | 37 | 1020.5 |
| 20260502185230 | 18 | 327 | 8.0 | 25.7 | 0.00 | 0.00 | 0.00 | 40 | 1020.7 |
| 20260502184741 | 18 | 325 | 9.7 | 25.7 | 0.00 | 0.00 | 0.00 | 39 | 1020.8 |
| 20260502184550 | 18 | 281 | 16.1 | 25.7 | 0.00 | 0.00 | 0.00 | 36 | 1021.1 |
| 20260502184227 | 18 | 355 | 14.5 | 24.1 | 0.00 | 0.00 | 0.00 | 35 | 1020.8 |
| 20260502183737 | 18 | 298 | 14.5 | 24.1 | 0.00 | 0.00 | 0.00 | 42 | 1020.9 |
| 20260502183245 | 17 | 288 | 4.8 | 14.5 | 0.00 | 0.00 | 0.00 | 37 | 1021.0 |
| 20260502183052 | 17 | 360 | 4.8 | 14.5 | 0.00 | 0.00 | 0.00 | 37 | 1021.3 |
| 20260502182727 | 17 | 323 | 9.7 | 14.5 | 0.00 | 0.00 | 0.00 | 43 | 1021.0 |
| 20260502182238 | 17 | 338 | 8.0 | 20.9 | 0.00 | 0.00 | 0.00 | 42 | 1021.1 |
| 20260502181722 | 17 | 309 | 12.9 | 25.7 | 0.00 | 0.00 | 0.00 | 38 | 1021.1 |
| 20260502181600 | 17 | 339 | 16.1 | 27.4 | 0.00 | 0.00 | 0.00 | 37 | 1021.5 |
| 20260502181507 | 17 | 292 | 16.1 | 27.4 | 0.00 | 0.00 | 0.00 | 37 | 1021.5 |
| 20260502181235 | 17 | 323 | 11.3 | 27.4 | 0.00 | 0.00 | 0.00 | 40 | 1021.2 |
| 20260502180804 | 17 | 302 | 11.3 | 27.4 | 0.00 | 0.00 | 0.00 | 35 | 1021.2 |
| 20260502180227 | 17 | 267 | 12.9 | 24.1 | 0.00 | 0.00 | 0.00 | 41 | 1021.2 |
| 20260502170226 | 16 | 325 | 4.8 | 16.1 | 0.00 | 0.00 | 0.00 | 43 | 1021.9 |
| 20260502164243 | 16 | 271 | 9.7 | 19.3 | 0.00 | 0.00 | 0.00 | 40 | 1022.1 |
| 20260502163725 | 15 | 263 | 8.0 | 19.3 | 0.00 | 0.00 | 0.00 | 42 | 1022.2 |
| 20260502163236 | 16 | 277 | 12.9 | 22.5 | 0.00 | 0.00 | 0.00 | 41 | 1022.3 |
| 20260502163035 | 15 | 294 | 9.7 | 22.5 | 0.00 | 0.00 | 0.00 | 41 | 1022.6 |
| 20260502162721 | 15 | 296 | 12.9 | 22.5 | 0.00 | 0.00 | 0.00 | 35 | 1022.2 |
| 20260502162233 | 15 | 273 | 12.9 | 24.1 | 0.00 | 0.00 | 0.00 | 43 | 1022.3 |
| 20260502161745 | 15 | 276 | 17.7 | 24.1 | 0.00 | 0.00 | 0.00 | 39 | 1022.4 |
| 20260502161541 | 15 | 275 | 8.0 | 24.1 | 0.00 | 0.00 | 0.00 | 45 | 1022.7 |
| 20260502161229 | 15 | 236 | 12.9 | 25.7 | 0.00 | 0.00 | 0.00 | 39 | 1022.5 |
| 20260502160739 | 15 | 315 | 14.5 | 25.7 | 0.00 | 0.00 | 0.00 | 41 | 1022.4 |
| 20260502160222 | 14 | 234 | 9.7 | 19.3 | 0.00 | 0.00 | 0.00 | 42 | 1022.5 |
| 20260502152247 | 13 | 244 | 11.3 | 17.7 | 0.00 | 0.00 | 0.00 | 43 | 1022.6 |
| 20260502151730 | 13 | 211 | 9.7 | 17.7 | 0.00 | 0.00 | 0.00 | 42 | 1022.6 |
| 20260502151609 | 13 | 219 | 8.0 | 17.7 | 0.00 | 0.00 | 0.00 | 44 | 1022.9 |
| 20260502151502 | 13 | 244 | 9.7 | 17.7 | 0.00 | 0.00 | 0.00 | 44 | 1023.0 |
| 20260502151246 | 13 | 239 | 11.3 | 19.3 | 0.00 | 0.00 | 0.00 | 47 | 1022.5 |
| 20260502150728 | 12 | 291 | 12.9 | 17.7 | 0.00 | 0.00 | 0.00 | 43 | 1022.5 |
| 20260502150239 | 13 | 214 | 11.3 | 16.1 | 0.00 | 0.00 | 0.00 | 45 | 1022.5 |
| 20260502130746 | 5 | 227 | 0.0 | 3.2 | 0.00 | 0.00 | 0.00 | 75 | 1022.7 |
| 20260502130232 | 4 | 227 | 1.6 | 4.8 | 0.00 | 0.00 | 0.00 | 74 | 1022.7 |
| 20260502123732 | 2 | 227 | 1.6 | 4.8 | 0.00 | 0.00 | 0.00 | 75 | 1022.6 |
| 20260502123243 | 2 | 227 | 3.2 | 4.8 | 0.00 | 0.00 | 0.00 | 75 | 1022.6 |
| 20260502123025 | 2 | 227 | 1.6 | 4.8 | 0.00 | 0.00 | 0.00 | 75 | 1023.0 |
| 20260502122726 | 2 | 227 | 3.2 | 4.8 | 0.00 | 0.00 | 0.00 | 75 | 1022.6 |
| 20260502122240 | 2 | 227 | 3.2 | 6.4 | 0.00 | 0.00 | 0.00 | 74 | 1022.6 |
| 20260502121751 | 2 | 227 | 4.8 | 6.4 | 0.00 | 0.00 | 0.00 | 74 | 1022.6 |
| 20260502121523 | 2 | 227 | 3.2 | 6.4 | 0.00 | 0.00 | 0.00 | 74 | 1023.0 |
| 20260502121229 | 2 | 227 | 4.8 | 6.4 | 0.00 | 0.00 | 0.00 | 73 | 1022.5 |
| 20260502120801 | 2 | 227 | 3.2 | 4.8 | 0.00 | 0.00 | 0.00 | 73 | 1022.5 |
| 20260502120224 | 2 | 227 | 3.2 | 4.8 | 0.00 | 0.00 | 0.00 | 74 | 1022.4 |
| 20260502115732 | 1 | 227 | 3.2 | 4.8 | 0.00 | 0.00 | 0.00 | 76 | 1022.3 |
| 20260502115244 | 1 | 227 | 3.2 | 6.4 | 0.00 | 0.00 | 0.00 | 76 | 1022.3 |
| 20260502114725 | 1 | 227 | 4.8 | 6.4 | 0.00 | 0.00 | 0.00 | 76 | 1022.3 |
| 20260502114509 | 1 | 227 | 3.2 | 4.8 | 0.00 | 0.00 | 0.00 | 76 | 1022.7 |
| 20260502114241 | 1 | 224 | 3.2 | 4.8 | 0.00 | 0.00 | 0.00 | 76 | 1022.3 |
| 20260502113724 | 1 | 224 | 4.8 | 6.4 | 0.00 | 0.00 | 0.00 | 76 | 1022.3 |
| 20260502113231 | 1 | 223 | 4.8 | 8.0 | 0.00 | 0.00 | 0.00 | 76 | 1022.2 |
| 20260502113024 | 1 | 223 | 3.2 | 8.0 | 0.00 | 0.00 | 0.00 | 76 | 1022.7 |
| 20260502112742 | 1 | 223 | 4.8 | 9.7 | 0.00 | 0.00 | 0.00 | 75 | 1022.3 |
| 20260502112224 | 1 | 229 | 6.4 | 9.7 | 0.00 | 0.00 | 0.00 | 75 | 1022.2 |
| 20260502111735 | 1 | 222 | 6.4 | 9.7 | 0.00 | 0.00 | 0.00 | 74 | 1022.2 |
| 20260502111532 | 1 | 219 | 6.4 | 8.0 | 0.00 | 0.00 | 0.00 | 74 | 1022.5 |
| 20260502111250 | 1 | 219 | 6.4 | 8.0 | 0.00 | 0.00 | 0.00 | 74 | 1022.0 |
| 20260502110731 | 2 | 219 | 6.4 | 8.0 | 0.00 | 0.00 | 0.00 | 74 | 1022.1 |
| 20260502110303 | 2 | 219 | 6.4 | 8.0 | 0.00 | 0.00 | 0.00 | 74 | 1022.2 |
| 20260502110059 | 1 | 201 | 4.8 | 6.4 | 0.00 | 0.00 | 0.00 | 74 | 1022.5 |
| 20260502110006 | 1 | 201 | 4.8 | 6.4 | 0.00 | 0.00 | 0.00 | 74 | 1022.4 |
| 20260502105721 | 2 | 200 | 4.8 | 6.4 | 0.00 | 0.00 | 0.00 | 75 | 1022.0 |
| 20260502105229 | 2 | 200 | 4.8 | 6.4 | 0.00 | 0.00 | 0.00 | 75 | 1022.0 |
| 20260502104801 | 2 | 200 | 3.2 | 6.4 | 0.00 | 0.00 | 0.00 | 74 | 1022.0 |
| 20260502104537 | 2 | 197 | 4.8 | 6.4 | 0.00 | 0.00 | 0.00 | 73 | 1022.4 |
| 20260502104223 | 2 | 200 | 4.8 | 8.0 | 0.00 | 0.00 | 0.00 | 72 | 1022.1 |
| 20260502103749 | 3 | 271 | 3.2 | 8.0 | 0.00 | 0.00 | 0.00 | 72 | 1022.2 |
| 20260502103233 | 3 | 276 | 4.8 | 8.0 | 0.00 | 0.00 | 0.00 | 71 | 1022.0 |
| 20260502103035 | 2 | 277 | 4.8 | 8.0 | 0.00 | 0.00 | 0.00 | 71 | 1022.4 |
| 20260502102745 | 3 | 300 | 6.4 | 8.0 | 0.00 | 0.00 | 0.00 | 71 | 1022.0 |
| 20260502102252 | 3 | 297 | 6.4 | 8.0 | 0.00 | 0.00 | 0.00 | 71 | 1021.9 |
| 20260502101743 | 3 | 300 | 3.2 | 6.4 | 0.00 | 0.00 | 0.00 | 71 | 1021.9 |
| 20260502101559 | 2 | 300 | 3.2 | 6.4 | 0.00 | 0.00 | 0.00 | 71 | 1022.3 |
| 20260502101230 | 3 | 327 | 4.8 | 6.4 | 0.00 | 0.00 | 0.00 | 71 | 1021.9 |
| 20260502100741 | 3 | 318 | 4.8 | 6.4 | 0.00 | 0.00 | 0.00 | 71 | 1021.8 |
| 20260502100224 | 3 | 324 | 4.8 | 6.4 | 0.00 | 0.00 | 0.00 | 71 | 1021.8 |
| 20260502091245 | 3 | 311 | 6.4 | 8.0 | 0.00 | 0.00 | 0.00 | 71 | 1021.7 |
| 20260502090727 | 3 | 311 | 4.8 | 8.0 | 0.00 | 0.00 | 0.00 | 71 | 1021.6 |
| 20260502090240 | 3 | 306 | 6.4 | 8.0 | 0.00 | 0.00 | 0.00 | 70 | 1021.6 |
| 20260502071534 | 5 | 338 | 4.8 | 6.4 | 0.00 | 0.00 | 0.00 | 56 | 1022.1 |
| 20260502071245 | 5 | 318 | 4.8 | 6.4 | 0.00 | 0.00 | 0.00 | 56 | 1021.8 |
| 20260502070734 | 5 | 318 | 4.8 | 6.4 | 0.00 | 0.00 | 0.00 | 56 | 1021.8 |
| 20260502070247 | 6 | 318 | 4.8 | 4.8 | 0.00 | 0.00 | 0.00 | 55 | 1021.8 |
| 20260502070017 | 5 | 318 | 3.2 | 6.4 | 0.00 | 0.00 | 0.00 | 54 | 1022.1 |
| 20260502065729 | 6 | 318 | 3.2 | 6.4 | 0.00 | 0.00 | 0.00 | 54 | 1021.8 |
| 20260502065300 | 6 | 318 | 3.2 | 6.4 | 0.00 | 0.00 | 0.00 | 54 | 1021.7 |
| 20260502064747 | 6 | 323 | 4.8 | 6.4 | 0.00 | 0.00 | 0.00 | 53 | 1021.8 |
| 20260502064556 | 5 | 323 | 3.2 | 6.4 | 0.00 | 0.00 | 0.00 | 53 | 1022.2 |
| 20260502064233 | 6 | 323 | 4.8 | 6.4 | 0.00 | 0.00 | 0.00 | 53 | 1021.8 |
| 20260502063743 | 6 | 323 | 4.8 | 6.4 | 0.00 | 0.00 | 0.00 | 53 | 1021.8 |
| 20260502063226 | 6 | 355 | 4.8 | 6.4 | 0.00 | 0.00 | 0.00 | 53 | 1021.8 |
| 20260502063006 | 5 | 355 | 3.2 | 4.8 | 0.00 | 0.00 | 0.00 | 53 | 1022.2 |
| 20260502062739 | 6 | 355 | 3.2 | 4.8 | 0.00 | 0.00 | 0.00 | 53 | 1021.8 |
| 20260502062248 | 6 | 355 | 3.2 | 4.8 | 0.00 | 0.00 | 0.00 | 52 | 1021.8 |
| 20260502061731 | 6 | 355 | 3.2 | 4.8 | 0.00 | 0.00 | 0.00 | 52 | 1021.8 |
| 20260502061507 | 5 | 355 | 1.6 | 4.8 | 0.00 | 0.00 | 0.00 | 52 | 1022.2 |
| 20260502061259 | 6 | 355 | 3.2 | 3.2 | 0.00 | 0.00 | 0.00 | 52 | 1021.8 |
| 20260502060749 | 6 | 355 | 3.2 | 3.2 | 0.00 | 0.00 | 0.00 | 51 | 1021.6 |
| 20260502060231 | 6 | 355 | 3.2 | 3.2 | 0.00 | 0.00 | 0.00 | 51 | 1021.6 |
| 20260502060052 | 5 | 355 | 1.6 | 3.2 | 0.00 | 0.00 | 0.00 | 51 | 1022.0 |
| 20260502055744 | 6 | 355 | 3.2 | 3.2 | 0.00 | 0.00 | 0.00 | 51 | 1021.6 |
| 20260502055227 | 6 | 355 | 3.2 | 3.2 | 0.00 | 0.00 | 0.00 | 51 | 1021.6 |
| 20260502054740 | 6 | 355 | 3.2 | 4.8 | 0.00 | 0.00 | 0.00 | 51 | 1021.5 |
| 20260502054559 | 5 | 355 | 1.6 | 4.8 | 0.00 | 0.00 | 0.00 | 51 | 1021.8 |
| 20260502054517 | 5 | 355 | 1.6 | 4.8 | 0.00 | 0.00 | 0.00 | 51 | 1021.8 |
| 20260502054226 | 6 | 355 | 3.2 | 4.8 | 0.00 | 0.00 | 0.00 | 51 | 1021.4 |
| 20260502053736 | 6 | 355 | 4.8 | 6.4 | 0.00 | 0.00 | 0.00 | 51 | 1021.4 |
| 20260502053304 | 6 | 355 | 4.8 | 4.8 | 0.00 | 0.00 | 0.00 | 51 | 1021.4 |
| 20260502053045 | 5 | 355 | 3.2 | 4.8 | 0.00 | 0.00 | 0.00 | 51 | 1021.8 |
| 20260502052727 | 6 | 355 | 4.8 | 4.8 | 0.00 | 0.00 | 0.00 | 51 | 1021.5 |
| 20260502052242 | 6 | 355 | 4.8 | 6.4 | 0.00 | 0.00 | 0.00 | 51 | 1021.4 |
| 20260502051737 | 6 | 355 | 4.8 | 6.4 | 0.00 | 0.00 | 0.00 | 50 | 1021.4 |
| 20260502051521 | 5 | 355 | 3.2 | 6.4 | 0.00 | 0.00 | 0.00 | 50 | 1021.8 |
| 20260502051257 | 6 | 355 | 4.8 | 6.4 | 0.00 | 0.00 | 0.00 | 50 | 1021.4 |
| 20260502050810 | 6 | 355 | 4.8 | 6.4 | 0.00 | 0.00 | 0.00 | 50 | 1021.4 |
| 20260502050243 | 6 | 355 | 4.8 | 6.4 | 0.00 | 0.00 | 0.00 | 49 | 1021.3 |
| 20260502050048 | 6 | 355 | 3.2 | 6.4 | 0.00 | 0.00 | 0.00 | 49 | 1021.7 |
| 20260502045801 | 6 | 355 | 4.8 | 6.4 | 0.00 | 0.00 | 0.00 | 50 | 1021.3 |
| 20260502045319 | 6 | 355 | 4.8 | 6.4 | 0.00 | 0.00 | 0.00 | 49 | 1021.3 |
| 20260502044722 | 6 | 355 | 3.2 | 4.8 | 0.00 | 0.00 | 0.00 | 49 | 1021.2 |
| 20260502044542 | 6 | 355 | 3.2 | 4.8 | 0.00 | 0.00 | 0.00 | 49 | 1021.5 |
| 20260502044235 | 6 | 355 | 3.2 | 4.8 | 0.00 | 0.00 | 0.00 | 49 | 1021.2 |
| 20260502043746 | 6 | 355 | 3.2 | 6.4 | 0.00 | 0.00 | 0.00 | 48 | 1021.2 |
| 20260502043225 | 6 | 355 | 3.2 | 6.4 | 0.00 | 0.00 | 0.00 | 48 | 1021.2 |
| 20260502043052 | 6 | 355 | 3.2 | 6.4 | 0.00 | 0.00 | 0.00 | 48 | 1021.5 |
| 20260502042736 | 7 | 355 | 4.8 | 6.4 | 0.00 | 0.00 | 0.00 | 48 | 1021.2 |
| 20260502042247 | 7 | 355 | 4.8 | 4.8 | 0.00 | 0.00 | 0.00 | 47 | 1021.3 |
| 20260502041739 | 7 | 355 | 4.8 | 6.4 | 0.00 | 0.00 | 0.00 | 47 | 1021.3 |
| 20260502041532 | 6 | 355 | 3.2 | 6.4 | 0.00 | 0.00 | 0.00 | 47 | 1021.6 |
| 20260502041223 | 7 | 355 | 4.8 | 6.4 | 0.00 | 0.00 | 0.00 | 47 | 1021.1 |
| 20260502040733 | 7 | 355 | 4.8 | 6.4 | 0.00 | 0.00 | 0.00 | 47 | 1021.2 |
| 20260502040245 | 7 | 341 | 4.8 | 6.4 | 0.00 | 0.00 | 0.00 | 47 | 1021.2 |
| 20260502040035 | 7 | 336 | 3.2 | 6.4 | 0.00 | 0.00 | 0.00 | 47 | 1021.5 |
| 20260502035724 | 7 | 349 | 4.8 | 6.4 | 0.00 | 0.00 | 0.00 | 46 | 1021.2 |
| 20260502035233 | 7 | 355 | 4.8 | 6.4 | 0.00 | 0.00 | 0.00 | 46 | 1021.2 |
| 20260502034745 | 7 | 355 | 4.8 | 6.4 | 0.00 | 0.00 | 0.00 | 46 | 1021.2 |
| 20260502034544 | 7 | 347 | 4.8 | 6.4 | 0.00 | 0.00 | 0.00 | 46 | 1021.5 |
| 20260502034230 | 7 | 347 | 6.4 | 6.4 | 0.00 | 0.00 | 0.00 | 46 | 1021.2 |
| 20260502033741 | 7 | 350 | 4.8 | 8.0 | 0.00 | 0.00 | 0.00 | 46 | 1021.2 |
| 20260502033226 | 7 | 346 | 4.8 | 8.0 | 0.00 | 0.00 | 0.00 | 46 | 1021.2 |
| 20260502033047 | 7 | 348 | 4.8 | 8.0 | 0.00 | 0.00 | 0.00 | 46 | 1021.5 |
| 20260502032758 | 8 | 344 | 4.8 | 8.0 | 0.00 | 0.00 | 0.00 | 46 | 1021.2 |
| 20260502032250 | 8 | 355 | 4.8 | 8.0 | 0.00 | 0.00 | 0.00 | 45 | 1021.0 |
| 20260502031729 | 8 | 349 | 4.8 | 8.0 | 0.00 | 0.00 | 0.00 | 45 | 1021.1 |
| 20260502031528 | 8 | 348 | 4.8 | 8.0 | 0.00 | 0.00 | 0.00 | 45 | 1021.4 |
| 20260502031243 | 8 | 348 | 6.4 | 8.0 | 0.00 | 0.00 | 0.00 | 45 | 1021.0 |
| 20260502030726 | 8 | 355 | 4.8 | 8.0 | 0.00 | 0.00 | 0.00 | 45 | 1021.0 |
| 20260502030238 | 8 | 350 | 6.4 | 8.0 | 0.00 | 0.00 | 0.00 | 44 | 1021.0 |
| 20260502030033 | 8 | 351 | 6.4 | 8.0 | 0.00 | 0.00 | 0.00 | 44 | 1021.3 |
| 20260502025750 | 8 | 355 | 6.4 | 8.0 | 0.00 | 0.00 | 0.00 | 44 | 1020.9 |